Location: Boiro
(42.6475°N, 8.8834°W)
Time: 02:31:46
(UTC+01:00)

Transit 2A Rocket - Pass Details

Date: 04 December 2021
Orbit: 584 x 917 km, 66.7° (Epoch: 23 January)

Event Time Altitude Azimuth Distance (km) Brightness Sun altitude
Rises 07:20:24 0° 152° (SSE) 3,280 9.0 -15.8°
Reaches altitude 10° 07:24:20 10° 123° (ESE) 2,435 8.8 -15.1°
Maximum altitude 07:26:29 12° 100° (E) 2,317 8.8 -14.7°
Drops below altitude 10° 07:28:42 10° 78° (ENE) 2,514 8.6 -14.4°
Sets 07:32:55 0° 50° (NE) 3,514 8.9 -13.6°
